#Datum;Uhrzeit;WR;Pac;DaySum;Status;WR;Pac;DaySum;Status;Pdc1;Udc;Temp;WR;Pac;DaySum;Status;Pdc1;Udc;Temp;WR;Pac;DaySum;Status;Pdc1;Udc;Temp;WR;Pac;DaySum;Status;Pdc1;Pdc2;Udc1;Udc2;Temp;WR;Pac;DaySum;Status;Pdc1;Pdc2;Udc1;Udc2;Temp;WR;Pac;DaySum;Status;Pdc1;Udc;Temp;WR;Pac;DaySum;Status;Pdc1;Udc;Temp;WR;Pac;DaySum;Status;Pdc1;Udc;Temp
30.01.20;23:55:00;1;332;12697;0;2;0;11256;0;0;0;0;3;0;7157;0;0;0;0;4;0;9095;0;0;0;0;5;0;21717;0;0;0;0;0;0;6;0;16676;0;0;0;0;0;0;7;0;15514;0;0;0;0;8;0;15313;0;0;0;0;9;0;8352;0;0;0;0
30.01.20;23:50:00;1;292;12669;0;2;0;11256;0;0;0;0;3;0;7157;0;0;0;0;4;0;9095;0;0;0;0;5;0;21717;0;0;0;0;0;0;6;0;16676;0;0;0;0;0;0;7;0;15514;0;0;0;0;8;0;15313;0;0;0;0;9;0;8352;0;0;0;0
30.01.20;23:45:00;1;962;12645;0;2;0;11256;0;0;0;0;3;0;7157;0;0;0;0;4;0;9095;0;0;0;0;5;0;21717;0;0;0;0;0;0;6;0;16676;0;0;0;0;0;0;7;0;15514;0;0;0;0;8;0;15313;0;0;0;0;9;0;8352;0;0;0;0
30.01.20;23:40:00;1;383;12595;0;2;0;11256;0;0;0;0;3;0;7157;0;0;0;0;4;0;9095;0;0;0;0;5;0;21717;0;0;0;0;0;0;6;0;16676;0;0;0;0;0;0;7;0;15514;0;0;0;0;8;0;15313;0;0;0;0;9;0;8352;0;0;0;0
30.01.20;23:35:00;1;358;12562;0;2;0;11256;0;0;0;0;3;0;7157;0;0;0;0;4;0;9095;0;0;0;0;5;0;21717;0;0;0;0;0;0;6;0;16676;0;0;0;0;0;0;7;0;15514;0;0;0;0;8;0;15313;0;0;0;0;9;0;8352;0;0;0;0
30.01.20;23:30:00;1;691;12532;0;2;0;11256;0;0;0;0;3;0;7157;0;0;0;0;4;0;9095;0;0;0;0;5;0;21717;0;0;0;0;0;0;6;0;16676;0;0;0;0;0;0;7;0;15514;0;0;0;0;8;0;15313;0;0;0;0;9;0;8352;0;0;0;0
30.01.20;23:25:00;1;358;12478;0;2;0;11256;0;0;0;0;3;0;7157;0;0;0;0;4;0;9095;0;0;0;0;5;0;21717;0;0;0;0;0;0;6;0;16676;0;0;0;0;0;0;7;0;15514;0;0;0;0;8;0;15313;0;0;0;0;9;0;8352;0;0;0;0
30.01.20;23:20:00;1;362;12448;0;2;0;11256;0;0;0;0;3;0;7157;0;0;0;0;4;0;9095;0;0;0;0;5;0;21717;0;0;0;0;0;0;6;0;16676;0;0;0;0;0;0;7;0;15514;0;0;0;0;8;0;15313;0;0;0;0;9;0;8352;0;0;0;0
30.01.20;23:15:00;1;361;12417;0;2;0;11256;0;0;0;0;3;0;7157;0;0;0;0;4;0;9095;0;0;0;0;5;0;21717;0;0;0;0;0;0;6;0;16676;0;0;0;0;0;0;7;0;15514;0;0;0;0;8;0;15313;0;0;0;0;9;0;8352;0;0;0;0
30.01.20;23:10:00;1;1049;12385;0;2;0;11256;0;0;0;0;3;0;7157;0;0;0;0;4;0;9095;0;0;0;0;5;0;21717;0;0;0;0;0;0;6;0;16676;0;0;0;0;0;0;7;0;15514;0;0;0;0;8;0;15313;0;0;0;0;9;0;8352;0;0;0;0
30.01.20;23:05:00;1;410;12331;0;2;0;11256;0;0;0;0;3;0;7157;0;0;0;0;4;0;9095;0;0;0;0;5;0;21717;0;0;0;0;0;0;6;0;16676;0;0;0;0;0;0;7;0;15514;0;0;0;0;8;0;15313;0;0;0;0;9;0;8352;0;0;0;0
30.01.20;23:00:00;1;339;12296;0;2;0;11256;0;0;0;0;3;0;7157;0;0;0;0;4;0;9095;0;0;0;0;5;0;21717;0;0;0;0;0;0;6;0;16676;0;0;0;0;0;0;7;0;15514;0;0;0;0;8;0;15313;0;0;0;0;9;0;8352;0;0;0;0
30.01.20;22:55:00;1;674;12267;0;2;0;11256;0;0;0;0;3;0;7157;0;0;0;0;4;0;9095;0;0;0;0;5;0;21717;2;0;0;0;0;0;6;0;16676;2;0;0;0;0;0;7;0;15514;0;0;0;0;8;0;15313;0;0;0;0;9;0;8352;0;0;0;0
30.01.20;22:50:00;1;310;12214;0;2;0;11256;0;0;0;0;3;0;7157;0;0;0;0;4;0;9095;0;0;0;0;5;0;21717;2;0;0;0;0;0;6;0;16676;2;0;0;0;0;0;7;0;15514;0;0;0;0;8;0;15313;0;0;0;0;9;0;8352;0;0;0;0
30.01.20;22:45:00;1;307;12188;0;2;0;11256;0;0;0;0;3;0;7157;0;0;0;0;4;0;9095;0;0;0;0;5;0;21717;2;0;0;0;0;0;6;0;16676;2;0;0;0;0;0;7;0;15514;0;0;0;0;8;0;15313;0;0;0;0;9;0;8352;0;0;0;0
30.01.20;22:40:00;1;674;12163;0;2;0;11256;0;0;0;0;3;0;7157;0;0;0;0;4;0;9095;0;0;0;0;5;0;21717;2;0;0;0;0;0;6;0;16676;2;0;0;0;0;0;7;0;15514;0;0;0;0;8;0;15313;0;0;0;0;9;0;8352;0;0;0;0
30.01.20;22:35:00;1;343;12110;0;2;0;11256;0;0;0;0;3;0;7157;0;0;0;0;4;0;9095;0;0;0;0;5;0;21717;2;0;0;0;0;0;6;0;16676;2;0;0;0;0;0;7;0;15514;0;0;0;0;8;0;15313;0;0;0;0;9;0;8352;0;0;0;0
30.01.20;22:30:00;1;389;12081;0;2;0;11256;0;0;0;0;3;0;7157;0;0;0;0;4;0;9095;0;0;0;0;5;0;21717;2;0;0;0;0;0;6;0;16676;2;0;0;0;0;0;7;0;15514;0;0;0;0;8;0;15313;0;0;0;0;9;0;8352;0;0;0;0
30.01.20;22:25:00;1;388;12048;0;2;0;11256;0;0;0;0;3;0;7157;0;0;0;0;4;0;9095;0;0;0;0;5;0;21717;2;0;0;0;0;0;6;0;16676;2;0;0;0;0;0;7;0;15514;0;0;0;0;8;0;15313;0;0;0;0;9;0;8352;0;0;0;0
30.01.20;22:20:00;1;351;11992;0;2;0;11256;0;0;0;0;3;0;7157;0;0;0;0;4;0;9095;0;0;0;0;5;0;21717;2;0;0;0;0;0;6;0;16676;2;0;0;0;0;0;7;0;15514;0;0;0;0;8;0;15313;0;0;0;0;9;0;8352;0;0;0;0
30.01.20;22:15:00;1;338;11963;0;2;0;11256;0;0;0;0;3;0;7157;0;0;0;0;4;0;9095;0;0;0;0;5;0;21717;2;0;0;0;0;0;6;0;16676;2;0;0;0;0;0;7;0;15514;0;0;0;0;8;0;15313;0;0;0;0;9;0;8352;0;0;0;0
30.01.20;22:10:00;1;404;11935;0;2;0;11256;0;0;0;0;3;0;7157;0;0;0;0;4;0;9095;0;0;0;0;5;0;21717;2;0;0;0;0;0;6;0;16676;2;0;0;0;0;0;7;0;15514;0;0;0;0;8;0;15313;0;0;0;0;9;0;8352;0;0;0;0
30.01.20;22:05:00;1;1267;11876;0;2;0;11256;0;0;0;0;3;0;7157;0;0;0;0;4;0;9095;0;0;0;0;5;0;21717;2;0;0;0;0;0;6;0;16676;2;0;0;0;0;0;7;0;15514;0;0;0;0;8;0;15313;0;0;0;0;9;0;8352;0;0;0;0
30.01.20;22:00:00;1;460;11774;0;2;0;11256;0;0;0;0;3;0;7157;0;0;0;0;4;0;9095;0;0;0;0;5;0;21717;2;0;0;0;0;0;6;0;16676;2;0;0;0;0;0;7;0;15514;0;0;0;0;8;0;15313;0;0;0;0;9;0;8352;0;0;0;0
30.01.20;21:55:00;1;1259;11733;0;2;0;11256;0;0;0;0;3;0;7157;0;0;0;0;4;0;9095;0;0;0;0;5;0;21717;2;0;0;0;0;0;6;0;16676;2;0;0;0;0;0;7;0;15514;0;0;0;0;8;0;15313;0;0;0;0;9;0;8352;0;0;0;0
30.01.20;21:50:00;1;629;11656;0;2;0;11256;0;0;0;0;3;0;7157;0;0;0;0;4;0;9095;0;0;0;0;5;0;21717;2;0;0;0;0;0;6;0;16676;2;0;0;0;0;0;7;0;15514;0;0;0;0;8;0;15313;0;0;0;0;9;0;8352;0;0;0;0
30.01.20;21:45:00;1;661;11604;0;2;0;11256;0;0;0;0;3;0;7157;0;0;0;0;4;0;9095;0;0;0;0;5;0;21717;2;0;0;0;0;0;6;0;16676;2;0;0;0;0;0;7;0;15514;0;0;0;0;8;0;15313;0;0;0;0;9;0;8352;0;0;0;0
30.01.20;21:40:00;1;1456;11547;0;2;0;11256;0;0;0;0;3;0;7157;0;0;0;0;4;0;9095;0;0;0;0;5;0;21717;2;0;0;0;0;0;6;0;16676;2;0;0;0;0;0;7;0;15514;0;0;0;0;8;0;15313;0;0;0;0;9;0;8352;0;0;0;0
30.01.20;21:35:00;1;686;11461;0;2;0;11256;0;0;0;0;3;0;7157;0;0;0;0;4;0;9095;0;0;0;0;5;0;21717;2;0;0;0;0;0;6;0;16676;2;0;0;0;0;0;7;0;15514;0;0;0;0;8;0;15313;0;0;0;0;9;0;8352;0;0;0;0
30.01.20;21:30:00;1;702;11404;0;2;0;11256;0;0;0;0;3;0;7157;0;0;0;0;4;0;9095;0;0;0;0;5;0;21717;2;0;0;0;0;0;6;0;16676;2;0;0;0;0;0;7;0;15514;0;0;0;0;8;0;15313;0;0;0;0;9;0;8352;0;0;0;0
30.01.20;21:25:00;1;1456;11343;0;2;0;11256;0;0;0;0;3;0;7157;0;0;0;0;4;0;9095;0;0;0;0;5;0;21717;2;0;0;0;0;0;6;0;16676;2;0;0;0;0;0;7;0;15514;0;0;0;0;8;0;15313;0;0;0;0;9;0;8352;0;0;0;0
30.01.20;21:20:00;1;1027;11248;0;2;0;11256;0;0;0;0;3;0;7157;0;0;0;0;4;0;9095;0;0;0;0;5;0;21717;2;0;0;0;0;0;6;0;16676;2;0;0;0;0;0;7;0;15514;0;0;0;0;8;0;15313;0;0;0;0;9;0;8352;0;0;0;0
30.01.20;21:15:00;1;2016;11142;0;2;0;11256;0;0;0;0;3;0;7157;0;0;0;0;4;0;9095;0;0;0;0;5;0;21717;2;0;0;0;0;0;6;0;16676;2;0;0;0;0;0;7;0;15514;0;0;0;0;8;0;15313;0;0;0;0;9;0;8352;0;0;0;0
30.01.20;21:10:00;1;1867;10973;0;2;0;11256;0;0;0;0;3;0;7157;0;0;0;0;4;0;9095;0;0;0;0;5;0;21717;2;0;0;0;0;0;6;0;16676;2;0;0;0;0;0;7;0;15514;0;0;0;0;8;0;15313;0;0;0;0;9;0;8352;0;0;0;0
30.01.20;21:05:00;1;862;10872;0;2;0;11256;0;0;0;0;3;0;7157;0;0;0;0;4;0;9095;0;0;0;0;5;0;21717;2;0;0;0;0;0;6;0;16676;2;0;0;0;0;0;7;0;15514;0;0;0;0;8;0;15313;0;0;0;0;9;0;8352;0;0;0;0
30.01.20;21:00:00;1;931;10800;0;2;0;11256;0;0;0;0;3;0;7157;0;0;0;0;4;0;9095;0;0;0;0;5;0;21717;2;0;0;0;0;0;6;0;16676;2;0;0;0;0;0;7;0;15514;0;0;0;0;8;0;15313;0;0;0;0;9;0;8352;0;0;0;0
30.01.20;20:55:00;1;1235;10719;0;2;0;11256;0;0;0;0;3;0;7157;0;0;0;0;4;0;9095;0;0;0;0;5;0;21717;2;0;0;0;0;0;6;0;16676;2;0;0;0;0;0;7;0;15514;0;0;0;0;8;0;15313;0;0;0;0;9;0;8352;0;0;0;0
30.01.20;20:50:00;1;1861;10590;0;2;0;11256;0;0;0;0;3;0;7157;0;0;0;0;4;0;9095;0;0;0;0;5;0;21717;2;0;0;0;0;0;6;0;16676;2;0;0;0;0;0;7;0;15514;0;0;0;0;8;0;15313;0;0;0;0;9;0;8352;0;0;0;0
30.01.20;20:45:00;1;1302;10419;0;2;0;11256;0;0;0;0;3;0;7157;0;0;0;0;4;0;9095;0;0;0;0;5;0;21717;2;0;0;0;0;0;6;0;16676;2;0;0;0;0;0;7;0;15514;0;0;0;0;8;0;15313;0;0;0;0;9;0;8352;0;0;0;0
30.01.20;20:40:00;1;1524;10323;0;2;0;11256;0;0;0;0;3;0;7157;0;0;0;0;4;0;9095;0;0;0;0;5;0;21717;2;0;0;0;0;0;6;0;16676;2;0;0;0;0;0;7;0;15514;0;0;0;0;8;0;15313;0;0;0;0;9;0;8352;0;0;0;0
30.01.20;20:35:00;1;1192;10201;0;2;0;11256;0;0;0;0;3;0;7157;0;0;0;0;4;0;9095;0;0;0;0;5;0;21717;2;0;0;0;0;0;6;0;16676;2;0;0;0;0;0;7;0;15514;0;0;0;0;8;0;15313;0;0;0;0;9;0;8352;0;0;0;0
30.01.20;20:30:00;1;1221;10102;0;2;0;11256;0;0;0;0;3;0;7157;0;0;0;0;4;0;9095;0;0;0;0;5;0;21717;2;0;0;0;0;0;6;0;16676;2;0;0;0;0;0;7;0;15514;0;0;0;0;8;0;15313;0;0;0;0;9;0;8352;0;0;0;0
30.01.20;20:25:00;1;1366;9975;0;2;0;11256;0;0;0;0;3;0;7157;0;0;0;0;4;0;9095;0;0;0;0;5;0;21717;2;0;0;0;0;0;6;0;16676;2;0;0;0;0;0;7;0;15514;0;0;0;0;8;0;15313;0;0;0;0;9;0;8352;0;0;0;0
30.01.20;20:20:00;1;1452;9861;0;2;0;11256;0;0;0;0;3;0;7157;0;0;0;0;4;0;9095;0;0;0;0;5;0;21717;2;0;0;0;0;0;6;0;16676;2;0;0;0;0;0;7;0;15514;0;0;0;0;8;0;15313;0;0;0;0;9;0;8352;0;0;0;0
30.01.20;20:15:00;1;1506;9738;0;2;0;11256;0;0;0;0;3;0;7157;0;0;0;0;4;0;9095;0;0;0;0;5;0;21717;2;0;0;0;0;0;6;0;16676;2;0;0;0;0;0;7;0;15514;0;0;0;0;8;0;15313;0;0;0;0;9;0;8352;0;0;0;0
30.01.20;20:10:00;1;1448;9589;0;2;0;11256;0;0;0;0;3;0;7157;0;0;0;0;4;0;9095;0;0;0;0;5;0;21717;2;0;0;0;0;0;6;0;16676;2;0;0;0;0;0;7;0;15514;0;0;0;0;8;0;15313;0;0;0;0;9;0;8352;0;0;0;0
30.01.20;20:05:00;1;2341;9458;0;2;0;11256;0;0;0;0;3;0;7157;0;0;0;0;4;0;9095;0;0;0;0;5;0;21717;2;0;0;0;0;0;6;0;16676;2;0;0;0;0;0;7;0;15514;0;0;0;0;8;0;15313;0;0;0;0;9;0;8352;0;0;0;0
30.01.20;20:00:00;1;1465;9273;0;2;0;11256;0;0;0;0;3;0;7157;0;0;0;0;4;0;9095;0;0;0;0;5;0;21717;2;0;0;0;0;0;6;0;16676;2;0;0;0;0;0;7;0;15514;0;0;0;0;8;0;15313;0;0;0;0;9;0;8352;0;0;0;0
30.01.20;19:55:00;1;2056;9123;0;2;0;11256;0;0;0;0;3;0;7157;0;0;0;0;4;0;9095;0;0;0;0;5;0;21717;2;0;0;0;0;0;6;0;16676;2;0;0;0;0;0;7;0;15514;0;0;0;0;8;0;15313;0;0;0;0;9;0;8352;0;0;0;0
30.01.20;19:50:00;1;2609;8948;0;2;0;11256;0;0;0;0;3;0;7157;0;0;0;0;4;0;9095;0;0;0;0;5;0;21717;2;0;0;0;0;0;6;0;16676;2;0;0;0;0;0;7;0;15514;0;0;0;0;8;0;15313;0;0;0;0;9;0;8352;0;0;0;0
30.01.20;19:45:00;1;2924;8728;0;2;0;11256;0;0;0;0;3;0;7157;0;0;0;0;4;0;9095;0;0;0;0;5;0;21717;2;0;0;0;0;0;6;0;16676;2;0;0;0;0;0;7;0;15514;0;0;0;0;8;0;15313;0;0;0;0;9;0;8352;0;0;0;0
30.01.20;19:40:00;1;2514;8493;0;2;0;11256;0;0;0;0;3;0;7157;0;0;0;0;4;0;9095;0;0;0;0;5;0;21717;2;0;0;0;0;0;6;0;16676;2;0;0;0;0;0;7;0;15514;0;0;0;0;8;0;15313;0;0;0;0;9;0;8352;0;0;0;0
30.01.20;19:35:00;1;1682;8284;0;2;0;11256;0;0;0;0;3;0;7157;0;0;0;0;4;0;9095;0;0;0;0;5;0;21717;2;0;0;0;0;0;6;0;16676;2;0;0;0;0;0;7;0;15514;0;0;0;0;8;0;15313;0;0;0;0;9;0;8352;0;0;0;0
30.01.20;19:30:00;1;1173;8147;0;2;0;11256;0;0;0;0;3;0;7157;0;0;0;0;4;0;9095;0;0;0;0;5;0;21717;2;0;0;0;0;0;6;0;16676;2;0;0;0;0;0;7;0;15514;0;0;0;0;8;0;15313;0;0;0;0;9;0;8352;0;0;0;0
30.01.20;19:25:00;1;1549;8025;0;2;0;11256;0;0;0;0;3;0;7157;0;0;0;0;4;0;9095;0;0;0;0;5;0;21717;2;0;0;0;0;0;6;0;16676;2;0;0;0;0;0;7;0;15514;0;0;0;0;8;0;15313;0;0;0;0;9;0;8352;0;0;0;0
30.01.20;19:20:00;1;1056;7913;0;2;0;11256;0;0;0;0;3;0;7157;0;0;0;0;4;0;9095;0;0;0;0;5;0;21717;2;0;0;0;0;0;6;0;16676;2;0;0;0;0;0;7;0;15514;0;0;0;0;8;0;15313;0;0;0;0;9;0;8352;0;0;0;0
30.01.20;19:15:00;1;1035;7825;0;2;0;11256;0;0;0;0;3;0;7157;0;0;0;0;4;0;9095;0;0;0;0;5;0;21717;2;0;0;0;0;0;6;0;16676;2;0;0;0;0;0;7;0;15514;0;0;0;0;8;0;15313;0;0;0;0;9;0;8352;0;0;0;0
30.01.20;19:10:00;1;874;7738;0;2;0;11256;0;0;0;0;3;0;7157;0;0;0;0;4;0;9095;0;0;0;0;5;0;21717;2;0;0;0;0;0;6;0;16676;2;0;0;0;0;0;7;0;15514;0;0;0;0;8;0;15313;0;0;0;0;9;0;8352;0;0;0;0
30.01.20;19:05:00;1;689;7667;0;2;0;11256;0;0;0;0;3;0;7157;0;0;0;0;4;0;9095;0;0;0;0;5;0;21717;2;0;0;0;0;0;6;0;16676;2;0;0;0;0;0;7;0;15514;0;0;0;0;8;0;15313;0;0;0;0;9;0;8352;0;0;0;0
30.01.20;19:00:00;1;703;7609;0;2;0;11256;0;0;0;0;3;0;7157;0;0;0;0;4;0;9095;0;0;0;0;5;0;21717;2;0;0;0;0;0;6;0;16676;2;0;0;0;0;0;7;0;15514;0;0;0;0;8;0;15313;0;0;0;0;9;0;8352;0;0;0;0
30.01.20;18:55:00;1;800;7526;0;2;0;11256;0;0;0;0;3;0;7157;0;0;0;0;4;0;9095;0;0;0;0;5;0;21717;2;0;0;0;0;0;6;0;16676;2;0;0;0;0;0;7;0;15514;0;0;0;0;8;0;15313;0;0;0;0;9;0;8352;0;0;0;0
30.01.20;18:50:00;1;759;7459;0;2;0;11256;0;0;0;0;3;0;7157;0;0;0;0;4;0;9095;0;0;0;0;5;0;21717;2;0;0;0;0;0;6;0;16676;2;0;0;0;0;0;7;0;15514;0;0;0;0;8;0;15313;0;0;0;0;9;0;8352;0;0;0;0
30.01.20;18:45:00;1;726;7394;0;2;0;11256;0;0;0;0;3;0;7157;0;0;0;0;4;0;9095;0;0;0;0;5;0;21717;2;0;0;0;0;0;6;0;16676;2;0;0;0;0;0;7;0;15514;0;0;0;0;8;0;15313;0;0;0;0;9;0;8352;0;0;0;0
30.01.20;18:40:00;1;555;7336;0;2;0;11256;0;0;0;0;3;0;7157;0;0;0;0;4;0;9095;0;0;0;0;5;0;21717;2;0;0;0;0;0;6;0;16676;2;0;0;0;0;0;7;0;15514;0;0;0;0;8;0;15313;0;0;0;0;9;0;8352;0;0;0;0
30.01.20;18:35:00;1;779;7290;0;2;0;11256;0;0;0;0;3;0;7157;0;0;0;0;4;0;9095;0;0;0;0;5;0;21717;2;0;0;0;0;0;6;0;16676;2;0;0;0;0;0;7;0;15514;0;0;0;0;8;0;15313;0;0;0;0;9;0;8352;0;0;0;0
30.01.20;18:30:00;1;511;7222;0;2;0;11256;0;0;0;0;3;0;7157;0;0;0;0;4;0;9095;0;0;0;0;5;0;21717;2;0;0;0;0;0;6;0;16676;2;0;0;0;0;0;7;0;15514;0;0;0;0;8;0;15313;0;0;0;0;9;0;8352;0;0;0;0
30.01.20;18:25:00;1;503;7180;0;2;0;11256;0;0;0;0;3;0;7157;0;0;0;0;4;0;9095;0;0;0;0;5;0;21717;2;0;0;0;0;0;6;0;16676;2;0;0;0;0;0;7;0;15514;0;0;0;0;8;0;15313;0;0;0;0;9;0;8352;0;0;0;0
30.01.20;18:20:00;1;546;7137;0;2;0;11256;0;0;0;0;3;0;7157;0;0;0;0;4;0;9095;0;0;0;0;5;0;21717;2;0;0;0;0;0;6;0;16676;2;0;0;0;0;0;7;0;15514;0;0;0;0;8;0;15313;0;0;0;0;9;0;8352;0;0;0;0
30.01.20;18:15:00;1;527;7091;0;2;0;11256;0;0;0;0;3;0;7157;0;0;0;0;4;0;9095;0;0;0;0;5;0;21717;2;0;0;0;0;0;6;0;16676;2;0;0;0;0;0;7;0;15514;0;0;0;0;8;0;15313;0;0;0;0;9;0;8352;0;0;0;0
30.01.20;18:10:00;1;509;7047;0;2;0;11256;0;0;0;0;3;0;7157;0;0;0;0;4;0;9095;0;0;0;0;5;0;21717;2;0;0;0;0;0;6;0;16676;2;0;0;0;0;0;7;0;15514;0;0;0;0;8;0;15313;0;0;0;0;9;0;8352;0;0;0;0
30.01.20;18:05:00;1;738;6991;0;2;0;11256;0;0;0;0;3;0;7157;0;0;0;0;4;0;9095;0;0;0;0;5;0;21717;2;0;0;0;0;0;6;0;16676;2;0;0;0;0;0;7;0;15514;0;0;0;0;8;0;15313;0;0;0;0;9;0;8352;0;0;0;0
30.01.20;18:00:00;1;742;6929;0;2;0;11256;0;0;0;0;3;0;7157;0;0;0;0;4;0;9095;0;0;0;0;5;0;21717;2;0;0;0;0;0;6;0;16676;2;0;0;0;0;0;7;0;15514;0;0;0;0;8;0;15313;0;0;0;0;9;0;8352;0;0;0;0
30.01.20;17:55:00;1;796;6843;0;2;0;11256;0;0;0;0;3;0;7157;0;0;0;0;4;0;9095;0;0;0;0;5;0;21717;2;0;0;0;0;0;6;0;16676;2;0;0;0;0;0;7;0;15514;0;0;0;0;8;0;15313;0;0;0;0;9;0;8352;0;0;0;0
30.01.20;17:50:00;1;759;6776;0;2;0;11256;0;0;0;0;3;0;7157;0;0;0;0;4;0;9095;0;0;0;0;5;0;21717;2;0;0;0;0;0;6;0;16676;2;0;0;0;0;0;7;0;15514;0;0;0;0;8;0;15313;0;0;0;0;9;0;8352;0;0;0;0
30.01.20;17:45:00;1;549;6718;0;2;0;11256;0;0;0;0;3;0;7157;0;0;0;0;4;0;9095;0;0;0;0;5;0;21717;2;0;0;0;0;0;6;0;16676;2;0;0;0;0;0;7;0;15514;0;0;0;0;8;0;15313;0;0;0;0;9;0;8352;0;0;0;0
30.01.20;17:40:00;1;527;6672;0;2;0;11256;0;0;0;0;3;0;7157;0;0;0;0;4;0;9095;0;0;0;0;5;0;21717;2;0;0;0;0;0;6;0;16676;2;0;0;0;0;0;7;0;15514;0;0;0;0;8;0;15313;0;0;0;0;9;0;8352;0;0;0;0
30.01.20;17:35:00;1;542;6629;0;2;0;11256;0;0;0;0;3;0;7157;0;0;0;0;4;0;9095;0;0;0;0;5;0;21717;2;0;0;0;0;0;6;0;16676;2;0;0;0;0;0;7;0;15514;0;0;0;0;8;0;15313;0;0;0;0;9;0;8352;0;0;0;0
30.01.20;17:30:00;1;456;6590;0;2;0;11256;0;0;0;0;3;0;7157;0;0;0;0;4;0;9095;0;0;0;0;5;0;21717;2;0;0;0;0;0;6;0;16676;2;0;0;0;0;0;7;0;15514;0;0;0;0;8;0;15313;0;0;0;0;9;0;8352;0;0;0;0
30.01.20;17:25:00;1;468;6528;0;2;0;11256;0;0;36;2;3;0;7157;0;0;154;9;4;0;9095;0;0;0;0;5;0;21717;2;0;0;0;0;0;6;0;16676;2;0;0;0;0;0;7;0;15514;0;0;0;0;8;0;15313;0;0;0;0;9;0;8352;0;0;0;0
30.01.20;17:20:00;1;525;6489;0;2;0;11256;6;0;288;14;3;0;7157;6;0;321;17;4;0;9095;0;0;32;7;5;0;21717;2;0;0;0;0;0;6;0;16676;2;0;0;0;0;0;7;0;15514;0;0;0;0;8;0;15313;0;0;0;0;9;0;8352;0;0;0;0
30.01.20;17:15:00;1;538;6445;0;2;0;11256;6;0;334;14;3;0;7157;6;1;384;17;4;0;9095;1;0;98;14;5;0;21717;2;0;0;101;99;11;6;0;16676;1;2;0;55;83;7;7;0;15514;0;0;40;2;8;0;15313;0;0;41;2;9;0;8352;0;0;42;2
30.01.20;17:10:00;1;586;6400;0;2;0;11256;6;0;365;15;3;0;7157;6;2;434;17;4;0;9095;1;0;140;14;5;0;21717;26;0;0;371;400;23;6;0;16676;23;7;4;251;411;22;7;0;15514;6;0;287;17;8;0;15313;6;0;287;16;9;0;8352;6;0;296;12
30.01.20;17:05:00;1;654;6351;0;2;0;11256;6;0;388;15;3;0;7157;6;3;470;17;4;0;9095;1;0;184;15;5;0;21717;23;0;0;411;526;24;6;0;16676;23;1;9;500;249;22;7;0;15514;6;0;366;17;8;0;15313;6;0;366;17;9;0;8352;6;0;376;12
30.01.20;17:00:00;1;576;6298;0;2;0;11256;6;0;404;15;3;1;7157;6;5;463;17;4;0;9095;1;0;218;15;5;8;21717;1;0;0;411;645;24;6;0;16676;23;6;4;263;568;23;7;0;15514;6;2;408;18;8;0;15313;6;1;408;17;9;0;8352;6;0;418;13
30.01.20;16:55:00;1;572;6226;0;2;3;11256;6;8;408;16;3;0;7157;6;5;513;18;4;0;9095;3;0;200;16;5;61;21716;1;8;13;391;624;25;6;33;16676;1;15;26;520;500;24;7;0;15514;6;3;454;18;8;2;15313;6;4;452;18;9;0;8352;6;1;488;13
30.01.20;16:50:00;1;617;6179;0;2;32;11256;6;59;375;16;3;1;7157;4;7;517;18;4;7;9095;3;7;200;16;5;105;21711;4;29;26;383;612;25;6;70;16673;4;33;44;482;459;24;7;1;15514;6;8;472;18;8;1;15313;6;9;470;18;9;0;8352;6;3;510;14
30.01.20;16:45:00;1;626;6126;0;2;80;11253;4;115;374;17;3;13;7157;3;26;525;18;4;14;9094;3;15;198;16;5;159;21702;4;52;46;384;612;25;6;101;16667;4;45;59;482;459;24;7;32;15514;6;51;423;19;8;25;15313;6;48;430;18;9;5;8352;3;14;516;14
30.01.20;16:40:00;1;626;6074;0;2;115;11246;4;151;377;17;3;56;7156;4;95;462;19;4;50;9093;3;53;197;17;5;196;21688;4;84;68;384;612;25;6;133;16658;4;51;67;482;459;24;7;74;15511;4;104;397;19;8;57;15311;4;93;441;19;9;14;8351;6;23;511;14
30.01.20;16:35:00;1;613;6021;0;2;113;11237;4;149;369;17;3;61;7151;4;99;451;19;4;59;9089;3;62;197;17;5;236;21672;4;103;95;383;612;25;6;161;16647;4;79;88;482;459;24;7;94;15505;4;129;408;19;8;90;15306;4;124;387;19;9;8;8350;6;12;558;15
30.01.20;16:30:00;1;310;5973;0;2;140;11227;4;177;374;17;3;80;7146;4;118;477;19;4;86;9084;3;89;207;17;5;295;21651;4;131;115;384;612;26;6;197;16633;4;93;104;482;459;25;7;131;15497;4;164;425;20;8;131;15299;4;161;420;19;9;41;8349;6;59;515;15
30.01.20;16:25:00;1;459;5926;0;2;183;11216;4;222;373;18;3;111;7139;4;147;475;19;4;130;9077;5;135;227;18;5;362;21626;4;175;148;384;612;26;6;246;16616;4;123;139;481;459;25;7;175;15486;4;216;428;20;8;176;15288;4;211;410;19;9;92;8346;4;121;484;16
30.01.20;16:20:00;1;483;5887;0;2;225;11200;4;267;387;18;3;128;7130;4;167;516;19;4;172;9066;5;179;226;18;5;428;21596;4;202;171;394;612;26;6;298;16596;4;127;153;482;520;25;7;226;15472;4;271;444;20;8;229;15273;4;269;446;20;9;116;8338;4;149;520;16
30.01.20;16:15:00;1;499;5846;0;2;274;11182;4;317;384;18;3;160;7120;4;204;517;19;4;210;9052;5;218;229;18;5;504;21559;4;246;204;401;612;26;6;380;16570;4;186;203;562;553;25;7;287;15453;4;335;468;21;8;285;15254;4;332;460;20;9;153;8329;4;186;515;17
30.01.20;16:10:00;1;557;5805;0;2;324;11159;4;370;395;18;3;195;7107;4;238;482;19;4;251;9034;5;262;233;18;5;594;21517;4;286;243;405;634;26;6;443;16538;4;215;235;581;550;25;7;356;15429;4;395;452;21;8;355;15231;4;399;449;21;9;184;8316;4;219;502;17
30.01.20;16:05:00;1;405;5761;0;2;386;11132;4;434;399;18;3;238;7090;4;285;503;19;4;302;9013;5;314;235;19;5;690;21467;4;337;292;417;657;26;6;520;16501;4;261;281;577;554;25;7;446;15400;4;483;461;21;8;432;15201;4;477;444;21;9;223;8301;4;261;514;17
30.01.20;16:00:00;1;293;5731;0;2;478;11100;4;526;395;19;3;291;7070;4;340;501;19;4;363;8988;5;378;235;19;5;817;21408;4;403;336;412;663;27;6;612;16457;4;315;327;577;562;25;7;536;15363;4;592;456;22;8;542;15166;4;588;466;21;9;264;8282;4;302;532;18
30.01.20;15:55:00;1;255;5684;0;2;560;11060;4;614;404;19;3;343;7046;4;396;518;20;4;427;8958;5;444;238;19;5;962;21338;4;474;401;414;667;27;6;723;16404;4;367;382;587;564;25;7;682;15318;4;729;472;22;8;660;15120;4;707;464;22;9;301;8260;4;347;541;18
30.01.20;15:50:00;1;234;5663;0;2;593;11013;4;648;403;20;3;366;7018;4;416;509;20;4;460;8923;5;479;238;20;5;1033;21258;4;521;430;419;673;27;6;773;16344;4;387;403;581;566;25;7;716;15261;4;760;468;23;8;701;15065;4;753;466;22;9;330;8235;4;374;512;19
30.01.20;15:45:00;1;275;5644;0;2;779;10964;4;840;402;21;3;438;6987;4;488;463;20;4;559;8884;5;582;244;20;5;1268;21171;4;648;544;413;679;27;6;965;16279;4;452;462;592;570;25;7;963;15202;4;1025;470;23;8;938;15007;4;1005;464;23;9;406;8208;4;448;442;19
30.01.20;15:40:00;1;275;5621;0;2;896;10900;4;958;392;21;3;492;6951;4;541;429;21;4;627;8838;5;654;246;20;5;1468;21063;4;747;622;419;684;27;6;1114;16197;4;574;570;591;566;26;7;1171;15122;4;1243;477;23;8;1155;14930;4;1228;473;23;9;517;8174;4;570;472;20
30.01.20;15:35:00;1;278;5598;0;2;1090;10824;4;1158;388;22;3;603;6909;4;656;428;21;4;681;8785;5;709;250;21;5;1688;20939;4;868;720;420;688;28;6;1286;16102;4;650;648;594;571;26;7;1440;15024;4;1528;484;24;8;1428;14833;4;1506;482;23;9;681;8131;4;737;489;21
30.01.20;15:30:00;1;1216;5575;0;2;1073;10733;4;1142;387;23;3;594;6859;4;648;427;21;4;656;8729;5;683;251;21;5;1691;20798;4;873;728;419;689;28;6;1295;15994;4;650;647;592;570;26;7;1490;14905;4;1573;482;24;8;1470;14715;4;1552;478;24;9;727;8075;4;788;513;21
30.01.20;15:25:00;1;263;5529;0;2;1078;10644;4;1150;386;23;3;593;6810;4;644;430;22;4;648;8674;5;675;245;21;5;1713;20659;4;884;732;424;683;28;6;1293;15887;4;667;660;590;563;26;7;1434;14780;4;1513;474;24;8;1404;14592;4;1481;470;24;9;719;8014;4;781;533;22
30.01.20;15:20:00;1;247;5506;0;2;1511;10555;4;1598;386;24;3;840;6760;4;903;427;22;4;800;8620;5;833;250;22;5;2355;20515;4;1244;1022;419;692;28;6;1795;15778;4;921;928;596;576;26;7;2053;14660;4;2154;472;25;8;2010;14475;4;2113;474;24;9;1054;7954;4;1131;520;22
30.01.20;15:15:00;1;236;5485;0;2;1737;10430;4;1837;402;25;3;937;6691;4;1002;432;23;4;896;8554;5;933;249;22;5;2666;20318;4;1425;1166;424;690;29;6;2046;15627;4;1056;1044;596;574;26;7;2345;14489;4;2462;472;25;8;2311;14306;4;2425;471;25;9;1246;7866;4;1328;521;23
30.01.20;15:10:00;1;237;5465;0;2;2097;10286;4;2212;406;26;3;1162;6613;4;1236;462;23;4;973;8479;5;1013;252;22;5;3125;20094;4;1681;1374;422;689;29;6;2375;15456;4;1217;1193;598;580;26;7;2731;14294;4;2865;476;25;8;2689;14115;4;2815;479;25;9;1445;7762;4;1538;520;24
30.01.20;15:05:00;1;295;5445;0;2;2241;10110;4;2360;405;26;3;1327;6516;4;1412;483;24;4;1047;8398;5;1090;253;22;5;3443;19825;4;1867;1520;423;683;29;6;2651;15250;4;1353;1329;600;575;26;7;3067;14068;4;3224;476;25;8;3040;13893;4;3186;476;25;9;1652;7643;4;1749;524;24
30.01.20;15:00:00;1;295;5420;0;2;2159;9923;4;2276;401;26;3;1322;6405;4;1408;502;24;4;1062;8311;5;1106;249;23;5;3357;19538;4;1809;1481;423;688;29;6;2589;15030;4;1347;1328;598;574;26;7;2912;13809;4;3048;479;25;8;2871;13637;4;3012;473;25;9;1557;7504;4;1648;523;24
30.01.20;14:55:00;1;696;5395;0;2;2543;9742;4;2680;406;27;3;1627;6295;4;1725;515;24;4;1268;8222;5;1321;253;23;5;4081;19252;4;2217;1806;427;691;29;6;3125;14810;4;1619;1593;603;578;26;7;3476;13566;4;3642;470;26;8;3417;13395;4;3578;471;25;9;1852;7373;4;1957;524;24
30.01.20;14:50:00;1;331;5347;0;2;2347;9532;4;2478;411;26;3;1523;6160;4;1615;513;24;4;1307;8117;5;1361;256;23;5;3920;18910;4;2135;1738;426;697;29;6;3034;14549;4;1559;1530;599;578;26;7;3323;13278;4;3492;482;26;8;2104;13112;4;2204;286;15;9;1824;7219;4;1924;526;24
30.01.20;14:45:00;1;353;5319;0;2;2097;9336;4;2211;401;26;3;1359;6034;4;1450;519;24;4;1310;8008;5;1365;253;23;5;3556;18585;4;1922;1573;424;685;29;6;2719;14298;4;1396;1352;600;575;26;7;2890;13002;4;3042;477;26;8;2854;12822;4;2988;476;26;9;1574;7068;4;1670;521;24
30.01.20;14:40:00;1;337;5291;0;2;1917;9161;4;2022;400;26;3;1229;5920;4;1313;519;24;4;1269;7899;5;1322;255;23;5;3243;18294;4;1740;1422;423;682;29;6;2480;14073;4;1273;1255;603;569;26;7;2573;12763;4;2703;471;26;8;2541;12587;4;2664;478;26;9;1368;6939;4;1457;528;24
30.01.20;14:35:00;1;344;5263;0;2;1607;9003;4;1702;398;27;3;1027;5819;4;1103;514;24;4;1146;7794;5;1193;246;24;5;2770;18028;4;1494;1204;418;695;30;6;2151;13869;4;1082;1062;593;571;27;7;2171;12548;4;2287;472;27;8;2147;12374;4;2256;471;26;9;1171;6823;4;1248;521;24
30.01.20;14:30:00;1;280;5234;0;2;1973;8869;4;2085;405;28;3;1265;5733;4;1352;514;25;4;1314;7699;5;1369;254;24;5;3367;17795;4;1800;1483;422;679;30;6;2560;13690;4;1344;1310;594;570;27;7;2540;12367;4;2669;469;27;8;2498;12196;4;2618;471;27;9;1354;6726;4;1442;526;25
30.01.20;14:25:00;1;307;5210;0;2;2615;8705;4;2752;403;29;3;1669;5628;4;1775;513;25;4;1628;7589;5;1695;249;24;5;4424;17514;4;2411;1964;420;683;30;6;3349;13476;4;1712;1665;599;574;27;7;3436;12156;4;3606;462;27;8;3366;11988;4;3529;458;27;9;1506;6613;4;1596;433;21
30.01.20;14:20:00;1;236;5167;0;2;2780;8489;4;2927;401;29;3;1743;5490;4;1849;515;25;4;1728;7454;5;1800;244;24;5;4640;17131;4;2540;2061;427;693;30;6;3770;13185;4;1930;1869;596;573;27;7;4125;11876;4;4333;472;27;8;4084;11712;4;4275;470;27;9;2267;6464;4;2393;516;26
30.01.20;14:15:00;1;256;5147;0;2;2438;8255;4;2567;405;29;3;1564;5343;4;1663;528;25;4;1717;7308;5;1789;251;25;5;4311;16727;4;2347;1909;421;680;30;6;3284;12873;4;1696;1652;600;576;27;7;3303;11531;4;3463;469;27;8;3243;11370;4;3403;476;27;9;1750;6276;4;1853;522;26